Wind_Speed
8 8 8 9 10 10 10 11 12 12 10 7 6 4 1 1 1 1 2 2 3 4 4 3 2 2 1 2 2 3 3 3 3 4 4 4 4 4 4 5 5 6 6 6 6 6 6 6 6
10 10 10 11 12 12 12 12 13 13 11 8 7 5 4 4 2 3 3 3 4 5 6 5 4 3 2 1 1 1 2 2 2 3 3 4 4 4 4 4 5 5 5 5 5 5 5 5 5
12 11 12 13 14 14 14 14 14 13 13 11 10 9 7 6 4 5 4 5 5 6 7 7 6 5 4 2 1 0 1 2 3 3 4 4 4 5 5 5 5 5 5 5 5 5 5 4 4
13 13 13 14 16 16 15 15 16 15 14 12 10 9 9 8 6 7 6 7 7 8 8 8 7 6 5 4 3 2 2 3 3 4 4 5 6 6 6 6 6 6 6 6 6 6 6 5 5
14 14 15 16 17 18 18 17 16 16 16 14 12 11 10 9 9 8 8 9 10 11 10 10 9 8 6 5 4 3 3 4 4 5 6 6 7 8 8 8 8 8 8 8 8 7 7 7 6
14 15 16 16 18 18 19 18 17 17 16 15 13 13 12 11 11 10 9 11 13 12 11 10 9 9 7 6 5 4 4 4 5 6 6 7 8 9 10 11 11 11 10 10 10 9 9 8 8
15 15 16 17 18 19 19 19 18 18 18 16 16 16 15 13 11 11 11 12 13 13 12 11 9 9 8 7 6 5 5 5 6 7 8 8 9 10 11 12 12 12 13 13 12 12 10 10 9
15 15 16 17 18 19 19 19 19 19 19 18 18 17 16 13 12 12 12 13 14 14 12 11 10 9 8 8 7 6 6 6 7 8 9 9 10 11 12 13 14 14 14 15 15 14 12 11 10
14 14 15 16 17 18 19 20 20 21 20 19 19 18 16 14 12 13 13 14 15 15 13 11 10 9 9 8 7 6 6 7 8 9 10 10 11 12 13 14 15 15 16 16 16 15 14 13 12
13 14 15 15 16 17 18 20 21 20 20 21 20 19 17 15 13 13 14 14 14 15 13 12 10 10 9 8 8 7 7 8 8 10 11 11 12 13 13 14 15 16 17 17 17 16 15 15 14
11 12 13 13 14 16 17 18 20 21 21 21 21 20 18 16 14 13 14 14 14 15 14 13 12 11 10 10 9 8 8 9 9 11 11 12 13 13 13 14 16 16 16 16 16 16 16 16 15
10 10 11 12 13 14 16 18 19 20 21 21 20 19 17 16 16 15 15 15 15 15 14 14 13 12 11 10 10 9 9 9 11 11 11 12 13 13 14 14 15 16 16 16 16 16 16 16 16
9 9 10 10 11 13 15 17 19 20 20 19 18 17 16 15 15 16 16 16 15 15 14 13 14 13 11 10 10 9 10 11 11 12 12 12 13 14 15 15 14 15 15 15 15 15 16 16 16
9 9 10 10 11 13 14 16 17 18 19 17 16 15 15 14 14 15 16 16 16 15 14 13 13 12 11 10 8 8 9 10 11 11 12 12 13 14 14 15 14 14 14 14 14 15 15 15 15
8 9 10 12 12 13 14 16 17 17 17 16 14 13 12 12 13 15 14 15 16 16 15 14 13 12 11 10 8 8 9 11 11 11 11 12 13 13 13 14 14 14 14 14 14 15 14 15 14
8 9 10 11 12 13 15 16 17 17 16 14 11 10 10 10 13 15 14 14 15 15 15 14 14 12 10 9 8 8 9 10 10 10 11 11 12 12 12 12 12 13 14 14 14 14 15 15 16
8 9 10 11 12 13 14 16 17 16 14 11 7 6 8 9 11 13 14 14 14 15 15 14 12 11 10 8 7 7 7 7 8 9 10 10 10 10 10 11 12 12 13 14 14 15 15 16 16
9 10 10 11 12 13 14 15 16 15 13 9 5 4 6 9 11 12 13 13 14 15 15 13 10 9 7 6 6 5 5 6 7 8 8 8 9 10 10 11 11 12 12 13 14 14 15 16 17
9 11 11 11 13 14 14 14 14 13 11 8 4 2 4 7 9 11 12 13 13 12 12 10 9 6 5 4 4 4 4 5 6 6 7 8 9 9 10 11 11 12 12 13 13 14 15 16 17
10 11 12 13 14 14 13 12 12 11 9 7 5 2 2 5 8 11 12 13 11 11 9 7 7 6 5 4 3 3 4 5 6 6 6 7 7 8 9 10 11 11 12 13 14 15 16 17 17
11 12 12 13 13 13 12 10 10 10 9 6 4 1 2 5 7 10 12 11 10 9 7 7 7 6 5 4 3 2 2 4 4 5 6 7 8 9 9 10 11 12 13 14 15 16 17 18 19
11 12 13 13 13 12 11 11 9 9 8 6 4 0 3 5 6 8 9 9 9 8 8 8 8 6 5 3 2 2 2 3 4 5 6 7 8 8 9 10 12 13 13 14 15 17 18 19 19
11 12 13 13 12 11 11 11 8 8 7 6 3 2 3 4 5 7 8 9 9 8 8 8 8 6 4 3 2 2 2 3 4 5 6 6 7 8 9 11 12 13 14 16 16 17 18 19 20
12 12 12 12 12 11 10 9 6 6 5 4 2 2 3 4 5 6 8 9 9 8 8 7 7 5 4 3 2 2 2 3 4 4 5 6 7 9 10 12 14 15 16 17 18 19 20 21 22
12 12 12 11 11 10 9 8 6 5 3 3 2 1 1 3 5 6 7 8 9 8 8 7 6 6 4 3 3 2 2 3 4 5 6 7 8 10 12 14 16 17 18 19 20 21 22 22 23
12 12 12 13 12 9 9 8 6 5 4 3 2 1 1 2 3 5 6 7 8 8 7 7 6 5 5 4 3 2 3 4 5 6 7 8 9 11 14 16 17 18 19 20 21 23 23 24 25
13 13 13 13 12 10 7 6 5 5 4 4 3 3 1 2 3 4 5 6 7 8 7 7 6 5 4 3 3 4 5 6 6 7 9 10 12 14 16 18 19 20 21 23 24 24 25 25 26
15 14 14 14 13 10 7 6 6 6 6 5 4 4 3 3 4 5 6 7 7 8 7 6 6 5 5 5 5 6 7 7 8 9 11 12 14 16 18 19 21 23 24 25 26 26 26 27 28
16 15 15 15 13 12 10 8 8 7 7 7 6 6 5 5 5 6 7 7 7 7 7 7 7 7 7 8 8 8 9 9 10 12 13 15 16 18 20 22 23 25 25 26 27 28 28 29 30
15 15 16 15 14 12 11 8 9 9 8 8 8 8 7 7 7 8 8 9 9 9 9 9 9 9 10 10 10 10 11 12 13 14 16 17 19 20 22 24 25 26 27 28 28 29 30 30 31
Wind_Direction
310 307 304 299 295 292 292 291 295 295 293 282 281 264 253 269 352 311 250 259 243 245 240 238 228 202 167 126 99 84 72 57 46 37 30 22 19 18 16 16 17 20 23 23 22 21 23 26 28
306 303 299 296 291 289 289 290 294 295 290 286 278 276 282 296 308 308 274 251 248 247 247 241 230 221 207 177 111 72 52 30 12 4 2 360 358 358 357 354 359 4 7 7 5 4 5 10 15
303 300 297 293 290 289 288 288 293 293 293 295 284 280 291 296 293 299 261 245 250 252 245 237 229 223 214 209 211 259 320 331 335 332 331 329 333 333 336 335 340 345 347 347 345 341 340 338 346
299 297 294 291 290 289 287 288 292 295 294 296 291 287 286 296 286 281 264 249 248 242 237 232 228 226 225 230 235 247 284 300 308 311 311 309 311 313 316 318 321 325 326 325 323 322 320 319 322
297 294 290 288 288 287 289 289 289 291 290 290 287 293 298 296 289 271 249 244 246 242 236 229 227 229 231 236 241 251 271 288 296 300 302 301 302 303 305 306 307 308 308 308 309 309 303 303 303
294 291 287 286 285 286 286 289 291 292 294 291 289 291 293 290 285 271 255 242 242 239 234 228 224 226 229 230 236 247 264 280 292 298 300 299 297 298 299 300 299 300 299 298 299 302 297 293 289
293 291 287 285 284 286 287 289 292 294 292 292 293 290 289 285 280 268 255 239 235 236 228 223 223 226 227 230 237 249 263 280 287 290 293 294 293 294 296 296 293 292 293 292 292 294 293 287 282
296 291 287 285 285 285 287 288 291 291 290 290 290 286 282 275 274 263 251 239 235 234 230 225 227 228 230 237 239 249 266 279 283 288 291 293 293 293 294 295 291 288 288 288 289 289 288 282 277
302 293 289 288 286 286 286 286 289 290 290 291 290 284 278 270 265 255 245 241 236 234 230 224 224 227 231 237 239 252 269 278 282 288 292 294 294 295 295 294 292 290 288 286 286 286 285 280 273
307 298 295 292 291 288 287 289 290 289 291 293 292 287 280 267 261 247 237 237 229 225 222 220 224 230 228 234 240 254 271 278 281 286 290 292 293 295 294 293 292 290 288 287 284 282 284 279 276
310 304 301 297 295 294 293 293 295 292 293 294 290 285 280 268 255 241 235 233 233 229 223 219 227 229 225 230 240 252 266 275 281 286 289 292 295 296 295 293 293 290 287 287 286 282 281 280 279
310 308 306 304 303 301 299 299 299 296 296 293 286 283 278 266 248 238 231 232 235 229 223 221 227 223 224 234 245 253 266 276 283 288 289 290 293 295 296 293 294 290 283 282 286 284 278 280 282
311 315 317 316 317 314 311 309 307 302 299 296 284 279 271 260 244 239 232 230 227 222 222 223 225 219 228 239 248 260 270 276 282 288 292 294 293 294 291 289 293 292 288 286 284 283 279 281 281
317 321 321 320 320 321 321 320 317 309 303 295 281 276 264 260 242 236 232 230 222 221 222 226 216 215 225 239 249 263 274 277 283 287 289 289 291 292 291 289 293 298 293 290 287 282 279 278 279
321 323 322 321 322 324 324 321 321 317 309 301 282 272 259 249 232 226 225 225 222 222 227 224 218 214 223 234 250 266 272 276 283 288 289 290 290 291 293 290 291 294 294 291 289 285 283 281 279
319 319 317 322 323 326 326 326 326 322 316 309 291 266 252 238 223 218 218 219 222 221 216 215 216 217 221 231 248 267 275 278 283 289 292 295 294 293 293 293 292 293 293 295 293 289 287 285 283
312 311 314 319 324 330 331 333 334 331 327 324 312 274 245 228 212 211 210 215 214 208 203 208 211 214 222 228 249 267 278 282 287 293 296 300 300 302 300 298 296 296 298 299 296 293 291 288 286
302 308 312 322 327 330 331 334 335 332 335 339 326 293 247 223 204 197 198 202 205 202 200 201 201 205 217 232 251 268 280 287 293 297 298 303 306 307 306 304 303 303 302 301 300 298 295 292 290
306 313 317 323 327 330 332 334 335 335 341 345 341 281 215 200 194 193 193 192 199 199 195 194 192 201 208 229 245 266 279 289 297 300 303 307 309 310 311 311 309 307 306 306 305 302 300 297 292
308 315 319 324 326 329 332 333 334 339 343 348 355 350 196 183 184 183 182 182 188 189 190 186 193 195 204 212 235 262 286 296 297 302 313 314 317 321 322 320 319 317 313 311 309 306 303 300 297
307 314 320 324 328 328 327 334 333 341 347 346 344 344 156 149 165 177 179 183 185 186 181 178 179 176 181 194 210 249 319 325 314 315 321 321 323 326 329 329 328 325 321 315 311 308 304 301 298
312 316 319 321 326 331 331 333 336 338 343 350 354 320 164 156 161 175 178 173 178 181 177 165 166 168 172 178 210 265 304 323 321 322 323 325 328 330 333 333 331 328 324 321 316 313 309 305 302
310 314 313 315 322 324 325 327 332 334 342 355 16 105 138 150 165 173 171 170 173 171 167 164 169 171 177 190 213 268 295 313 322 323 326 331 334 336 336 334 331 329 327 324 322 318 316 312 308
302 307 309 310 319 319 320 327 333 329 342 357 35 119 128 140 153 164 164 163 164 166 170 173 179 185 183 186 207 251 280 305 320 327 329 330 333 334 332 332 331 329 327 326 324 322 318 314 310
300 300 303 307 313 319 315 317 324 320 335 354 10 99 129 152 155 156 160 163 166 171 177 181 184 181 181 192 216 243 267 299 314 321 324 327 330 331 331 331 330 330 328 327 325 323 320 317 314
295 298 298 304 310 313 312 308 306 306 308 316 327 315 209 166 162 165 165 166 172 177 181 184 187 190 197 208 231 257 283 296 305 311 317 321 324 327 328 329 329 329 328 327 324 323 320 318 315
286 289 291 297 301 306 306 297 291 289 296 301 310 311 267 208 195 186 183 184 189 192 194 198 202 206 214 229 257 276 285 290 298 306 312 316 320 322 324 326 326 327 326 325 324 323 321 319 318
278 282 284 288 294 298 294 282 285 283 282 283 288 299 283 253 228 211 204 204 203 204 207 212 217 227 240 252 262 272 280 288 295 302 308 313 316 319 322 324 325 324 324 324 324 323 321 320 319
279 279 280 280 282 286 286 281 279 277 267 267 271 275 269 261 242 228 220 219 222 225 226 229 236 244 250 255 260 269 278 288 294 297 303 309 312 315 318 320 322 323 322 321 321 322 320 320 319
275 279 279 276 277 279 279 275 273 268 267 264 262 260 257 255 252 244 235 233 236 239 239 241 244 248 252 256 262 270 279 287 292 294 299 304 308 312 315 317 319 320 319 319 320 320 320 320 319
Height
5898 5898 5897 5897 5897 5896 5894 5893 5892 5892 5891 5891 5892 5891 5891 5891 5892 5895 5894 5893 5894 5894 5895 5895 5895 5895 5895 5895 5896 5896 5897 5897 5898 5898 5899 5899 5900 5900 5900 5901 5901 5901 5901 5901 5901 5901 5901 5901 5901
5897 5897 5897 5896 5895 5894 5893 5892 5891 5890 5890 5890 5890 5891 5891 5890 5890 5891 5891 5892 5893 5893 5894 5894 5895 5895 5895 5895 5895 5896 5897 5897 5897 5898 5898 5899 5899 5899 5899 5900 5900 5900 5900 5900 5901 5901 5901 5901 5901
5896 5896 5896 5895 5893 5892 5892 5891 5890 5889 5888 5888 5888 5889 5889 5889 5889 5890 5890 5891 5892 5892 5892 5893 5893 5894 5894 5894 5895 5896 5896 5896 5897 5897 5898 5898 5898 5898 5898 5899 5899 5899 5900 5900 5900 5900 5900 5900 5901
5894 5894 5894 5893 5891 5890 5890 5889 5888 5887 5887 5887 5886 5886 5886 5886 5887 5888 5888 5889 5890 5891 5891 5892 5892 5892 5893 5893 5894 5895 5895 5896 5896 5897 5897 5897 5897 5897 5897 5897 5898 5898 5898 5899 5899 5899 5899 5899 5900
5892 5892 5892 5890 5889 5888 5887 5887 5887 5885 5885 5884 5884 5883 5883 5884 5885 5886 5886 5887 5888 5889 5889 5889 5890 5891 5891 5892 5893 5894 5894 5895 5895 5896 5896 5896 5896 5896 5896 5896 5896 5896 5897 5897 5897 5897 5897 5898 5898
5890 5890 5889 5888 5887 5886 5885 5885 5884 5884 5883 5882 5882 5881 5881 5881 5882 5883 5884 5885 5886 5886 5886 5887 5888 5889 5890 5891 5892 5893 5893 5894 5894 5894 5895 5895 5895 5895 5895 5894 5894 5894 5895 5895 5895 5895 5895 5896 5896
5889 5888 5886 5886 5884 5884 5883 5883 5882 5881 5880 5880 5879 5879 5878 5878 5879 5880 5881 5882 5883 5884 5884 5885 5886 5888 5889 5890 5891 5892 5892 5893 5893 5893 5893 5893 5893 5893 5893 5892 5892 5892 5892 5892 5892 5893 5893 5894 5894
5886 5886 5884 5883 5882 5882 5881 5880 5879 5879 5878 5877 5876 5876 5875 5875 5876 5877 5878 5880 5882 5882 5883 5884 5885 5886 5887 5888 5889 5890 5891 5891 5891 5892 5892 5891 5891 5891 5891 5890 5890 5890 5889 5889 5890 5890 5890 5891 5892
5884 5884 5882 5881 5880 5879 5878 5878 5877 5876 5874 5874 5873 5872 5872 5872 5873 5874 5876 5878 5879 5880 5881 5882 5883 5884 5886 5887 5888 5889 5889 5890 5890 5890 5890 5890 5889 5889 5889 5888 5887 5887 5887 5886 5887 5887 5888 5888 5889
5882 5881 5880 5879 5878 5877 5876 5875 5873 5872 5871 5870 5869 5868 5868 5869 5870 5870 5872 5874 5875 5877 5878 5879 5881 5882 5883 5885 5886 5887 5887 5888 5888 5888 5887 5887 5887 5886 5886 5885 5885 5884 5884 5883 5883 5884 5884 5885 5886
5879 5879 5878 5877 5876 5875 5873 5872 5870 5869 5867 5866 5865 5864 5864 5865 5866 5867 5869 5871 5873 5874 5875 5877 5878 5880 5881 5883 5884 5884 5885 5885 5885 5885 5885 5885 5884 5884 5883 5883 5882 5881 5881 5881 5881 5880 5881 5882 5883
5878 5877 5876 5875 5874 5872 5870 5869 5867 5865 5863 5862 5860 5859 5859 5860 5862 5864 5866 5868 5869 5871 5873 5874 5875 5877 5879 5880 5881 5882 5882 5883 5883 5883 5882 5882 5882 5881 5881 5880 5879 5879 5878 5878 5878 5878 5878 5879 5879
5877 5876 5874 5873 5872 5870 5868 5866 5864 5861 5859 5857 5855 5855 5855 5855 5857 5859 5861 5864 5866 5868 5870 5872 5873 5875 5876 5878 5879 5879 5880 5881 5881 5880 5880 5879 5879 5879 5879 5878 5877 5876 5876 5875 5875 5875 5875 5875 5876
5876 5874 5873 5872 5870 5868 5866 5863 5861 5858 5855 5854 5852 5851 5851 5851 5852 5854 5857 5860 5864 5866 5868 5869 5870 5872 5874 5875 5876 5877 5878 5878 5878 5878 5877 5877 5876 5876 5876 5875 5875 5874 5873 5873 5873 5873 5873 5873 5873
5875 5874 5872 5871 5869 5866 5864 5861 5858 5855 5852 5849 5848 5847 5847 5848 5849 5850 5852 5856 5859 5861 5864 5866 5868 5870 5871 5873 5874 5875 5876 5876 5875 5875 5875 5874 5874 5874 5873 5873 5872 5872 5871 5870 5870 5870 5870 5870 5870
5874 5873 5872 5870 5867 5864 5864 5860 5856 5852 5849 5846 5844 5843 5843 5844 5845 5847 5849 5852 5855 5858 5860 5863 5866 5867 5869 5871 5873 5873 5873 5873 5873 5873 5872 5872 5872 5871 5871 5871 5870 5869 5869 5868 5868 5868 5867 5867 5867
5873 5872 5870 5869 5866 5863 5861 5858 5854 5850 5847 5844 5841 5840 5840 5841 5842 5844 5846 5848 5852 5855 5858 5861 5864 5865 5867 5870 5871 5872 5872 5871 5871 5871 5871 5870 5870 5869 5869 5868 5868 5867 5866 5866 5865 5865 5864 5864 5864
5873 5871 5869 5867 5864 5862 5859 5856 5853 5849 5846 5843 5840 5838 5837 5838 5840 5842 5844 5847 5850 5852 5856 5859 5861 5863 5865 5868 5869 5870 5870 5869 5869 5869 5869 5868 5868 5868 5867 5866 5866 5865 5864 5863 5862 5862 5861 5861 5860
5871 5870 5867 5865 5863 5860 5857 5855 5852 5849 5846 5843 5840 5838 5837 5837 5838 5841 5843 5845 5848 5851 5854 5856 5860 5862 5864 5866 5867 5868 5868 5868 5868 5867 5867 5867 5866 5866 5865 5864 5863 5862 5862 5861 5860 5859 5858 5858 5857
5869 5868 5866 5864 5861 5859 5856 5854 5851 5848 5846 5843 5841 5838 5837 5838 5839 5840 5841 5845 5848 5851 5854 5856 5858 5861 5862 5864 5865 5866 5866 5866 5866 5866 5866 5865 5865 5864 5863 5862 5861 5860 5859 5858 5857 5856 5855 5854 5853
5868 5866 5864 5862 5860 5857 5855 5854 5851 5848 5846 5843 5841 5839 5838 5839 5839 5840 5842 5844 5848 5850 5853 5854 5857 5859 5860 5862 5863 5864 5864 5864 5865 5864 5864 5863 5863 5862 5861 5860 5859 5858 5856 5855 5854 5853 5852 5850 5849
5865 5864 5862 5860 5858 5856 5855 5853 5851 5848 5846 5843 5841 5839 5839 5840 5840 5841 5842 5844 5847 5850 5852 5853 5855 5857 5859 5860 5862 5863 5863 5863 5863 5863 5862 5862 5861 5860 5859 5858 5857 5855 5854 5852 5851 5849 5848 5846 5845
5864 5862 5860 5859 5857 5856 5854 5852 5851 5848 5846 5843 5841 5840 5840 5840 5841 5841 5842 5844 5847 5849 5851 5853 5854 5856 5858 5859 5861 5861 5862 5862 5862 5861 5861 5860 5859 5858 5857 5856 5855 5853 5851 5849 5847 5846 5844 5842 5840
5861 5861 5859 5858 5856 5855 5853 5851 5850 5848 5847 5845 5843 5842 5842 5842 5842 5843 5844 5845 5847 5849 5851 5853 5854 5856 5857 5858 5859 5860 5860 5861 5860 5860 5859 5858 5857 5856 5855 5854 5852 5850 5848 5846 5844 5842 5840 5837 5835
5859 5859 5858 5856 5855 5854 5852 5851 5850 5848 5847 5846 5845 5844 5843 5843 5844 5844 5845 5846 5848 5850 5851 5852 5854 5855 5856 5857 5858 5858 5859 5859 5859 5858 5857 5856 5855 5854 5853 5851 5849 5847 5845 5842 5840 5837 5835 5832 5830
5857 5857 5856 5855 5854 5853 5851 5850 5850 5848 5847 5846 5846 5845 5844 5843 5844 5844 5845 5846 5848 5850 5851 5852 5853 5853 5854 5855 5856 5856 5857 5857 5857 5856 5855 5854 5853 5851 5850 5848 5846 5843 5841 5838 5835 5833 5830 5827 5824
5854 5854 5854 5853 5852 5851 5850 5850 5849 5848 5847 5846 5846 5845 5844 5844 5844 5844 5845 5846 5848 5849 5850 5851 5851 5852 5853 5853 5854 5854 5855 5855 5854 5853 5853 5851 5850 5848 5846 5844 5842 5839 5836 5834 5831 5828 5825 5821 5818
5852 5851 5851 5850 5849 5849 5849 5848 5848 5847 5846 5846 5846 5845 5844 5844 5844 5844 5845 5846 5847 5848 5849 5849 5850 5850 5851 5851 5852 5852 5852 5852 5851 5851 5850 5848 5847 5845 5843 5840 5838 5835 5832 5829 5826 5822 5819 5815 5812
5848 5848 5847 5847 5847 5847 5847 5849 5847 5846 5845 5845 5845 5845 5844 5844 5843 5844 5844 5845 5845 5846 5847 5847 5847 5848 5848 5849 5849 5850 5849 5849 5848 5847 5846 5845 5843 5841 5839 5836 5833 5830 5827 5823 5820 5816 5813 5809 5805
5844 5844 5844 5844 5844 5844 5844 5848 5844 5844 5843 5843 5844 5844 5843 5843 5843 5843 5843 5843 5844 5844 5844 5845 5845 5846 5846 5847 5846 5846 5846 5845 5844 5843 5842 5840 5838 5836 5834 5831 5828 5824 5821 5818 5814 5810 5807 5803 5799